Syracuse, NY

1:07 PM EST on December 06, 2019 (GMT -0500)
Syracuse Hancock International

Weather History for KSYR - October, 2019

Change the Weather History Date:

Monday, October 28, 2019

  Actual Average Record
Temperature  
Mean Temperature 56 °F 47 °F  
Max Temperature 66 °F 56 °F 79 °F (1927)
Min Temperature 47 °F 38 °F 22 °F (1940)
Degree Days  
Heating Degree Days 8 18  
Month to date heating degree days 343 395  
Since 1 July heating degree days 418 562  
Cooling Degree Days 0 0  
Month to date cooling degree days 11 0  
Year to date cooling degree days 622 565  
Growing Degree Days 6 (Base 50)    
Moisture  
Dew Point 46 °F    
Average Humidity 72    
Maximum Humidity 86    
Minimum Humidity 52    
Precipitation  
Precipitation 0.00 in 0.11 in 1.60 in (1981)
Month to date precipitation 4.92 3.11  
Year to date precipitation 39.05 31.39  
Snow  
Snow 0.00 in 0.10 in 1.80 in (1965)
Month to date snowfall 0.0 0.3  
Since 1 July snowfall T 0.3  
Since 1 September snowfall T 0.3  
Snow Depth 0.00 in    
Sea Level Pressure  
Sea Level Pressure 30.12 in    
Wind  
Wind Speed 6 mph ()    
Max Wind Speed 14 mph    
Max Gust Speed 18 mph    
Visibility 10.0 miles    
Events      
T = Trace of Precipitation, MM = Missing Value Source: Averaged Metar Reports

Daily Weather History Graph

Daily Weather History Graph

Search for Another Location

Airport or City:

Astronomy

Oct. 28, 2019 Rise Set
Actual Time 7:33 AM EDT 6:02 PM EDT
Civil Twilight 7:04 AM EDT 6:31 PM EDT
Nautical Twilight 6:31 AM EDT 7:04 PM EDT
Astronomical Twilight 5:58 AM EDT 7:37 PM EDT
Moon 7:51 AM EDT (10/28) 6:45 PM EDT (10/28)
Length of Visible Light 11h 26m
Length of Day
10h 28m
New Moon, 0% of the Moon is Illuminated
Oct 28
New Moon
Nov 4
First Quarter
Nov 12
Full
Nov 19
Last Quarter
Nov 26
New

Hourly Weather History & Observations

Time (EDT) Temp. Dew Point Humidity Pressure Visibility Wind Dir Wind Speed Gust Speed Precip Events Conditions
12:54 AM 54.0 °F 46.0 °F 75% 29.97 in 10.0 mi WNW 11.5 mph - N/A   Overcast
1:54 AM 54.0 °F 46.9 °F 77% 29.99 in 10.0 mi NW 9.2 mph - N/A   Overcast
2:54 AM 54.0 °F 46.0 °F 75% 30.02 in 10.0 mi NW 8.1 mph - N/A   Overcast
3:54 AM 54.0 °F 45.0 °F 72% 30.04 in 10.0 mi NW 10.4 mph - N/A   Overcast
4:54 AM 53.1 °F 45.0 °F 74% 30.07 in 10.0 mi NW 8.1 mph - N/A   Overcast
5:54 AM 53.1 °F 45.0 °F 74% 30.09 in 10.0 mi NW 8.1 mph - N/A   Overcast
6:54 AM 53.1 °F 45.0 °F 74% 30.11 in 10.0 mi NW 4.6 mph - N/A   Overcast
7:15 AM 52.0 °F 45.0 °F 77% 30.13 in 10.0 mi NW 4.6 mph - N/A   Scattered Clouds
7:36 AM 50.0 °F 44.1 °F 80% 30.14 in 10.0 mi NW 4.6 mph - N/A   Mostly Cloudy
7:54 AM 50.0 °F 46.0 °F 86% 30.14 in 10.0 mi Variable 3.5 mph - N/A   Overcast
8:54 AM 53.1 °F 46.9 °F 80% 30.16 in 10.0 mi South 3.5 mph - N/A   Overcast
9:42 AM 55.0 °F 46.9 °F 74% 30.17 in 10.0 mi SE 3.5 mph - N/A   Scattered Clouds
9:54 AM 55.9 °F 46.9 °F 72% 30.16 in 10.0 mi Variable 3.5 mph - N/A   Scattered Clouds
10:54 AM 57.9 °F 46.9 °F 67% 30.16 in 10.0 mi Calm Calm - N/A   Partly Cloudy
11:54 AM 59.0 °F 46.0 °F 62% 30.16 in 10.0 mi Variable 4.6 mph - N/A   Scattered Clouds
12:54 PM 61.0 °F 46.9 °F 60% 30.15 in 10.0 mi Calm Calm - N/A   Partly Cloudy
1:54 PM 63.0 °F 46.9 °F 56% 30.13 in 10.0 mi SSE 4.6 mph - N/A   Partly Cloudy
2:54 PM 64.9 °F 48.0 °F 54% 30.12 in 10.0 mi Variable 3.5 mph - N/A   Partly Cloudy
3:54 PM 64.0 °F 46.9 °F 54% 30.13 in 10.0 mi NNE 9.2 mph - N/A   Partly Cloudy
4:54 PM 63.0 °F 46.9 °F 56% 30.13 in 10.0 mi NE 8.1 mph - N/A   Partly Cloudy
5:54 PM 60.1 °F 46.9 °F 62% 30.13 in 10.0 mi ENE 8.1 mph - N/A   Clear
6:54 PM 57.9 °F 46.9 °F 67% 30.14 in 10.0 mi East 11.5 mph - N/A   Clear
7:54 PM 55.0 °F 46.9 °F 74% 30.14 in 10.0 mi East 10.4 mph - N/A   Clear
8:54 PM 52.0 °F 46.0 °F 80% 30.14 in 10.0 mi East 9.2 mph - N/A   Clear
9:54 PM 51.1 °F 46.0 °F 83% 30.15 in 10.0 mi East 9.2 mph - N/A   Clear
10:54 PM 50.0 °F 45.0 °F 83% 30.16 in 10.0 mi East 6.9 mph - N/A   Clear
11:54 PM 48.9 °F 45.0 °F 86% 30.16 in 10.0 mi East 9.2 mph - N/A   Clear